Location: Trout Lake
(45.9980°N, 121.5270°W)
Time: 13:53:00
(UTC-08:00)

SL-16 R/B - Pass Details

Date: 15 September 2025
Orbit: 841 x 844 km, 71.0° (Epoch: 22 January)

Event Time Altitude Azimuth Distance (km) Brightness Sun altitude
Rises 22:19:18 0° 340° (NNW) 3,407 6.2 -29.8°
Reaches altitude 10° 22:22:17 10° 355° (N) 2,468 5.2 -30.2°
Enters shadow 22:25:55 22° 34° (NE) 1,750 3.9 -30.6°
